Weather History for Bergamo, Italy

Change the Weather History Date:

Thursday, October 18, 2012

  Actual Average Record
Temperature  
Mean Temperature 58 °F -  
Max Temperature 64 °F 56 °F 74 °F (2014)
Min Temperature 51 °F 42 °F 42 °F (2003)
Degree Days  
Heating Degree Days 8    
Growing Degree Days 8 (Base 50)    
Moisture  
Dew Point 52 °F    
Average Humidity 84    
Maximum Humidity 100    
Minimum Humidity 63    
Precipitation  
Precipitation 0.00 in 0.14 in - ()
Sea Level Pressure  
Sea Level Pressure 30.22 in    
Wind  
Wind Speed 3 mph ()    
Max Wind Speed 7 mph    
Max Gust Speed -    
Visibility 5.4 miles    
Events      
Averages and records for this station are not official NWS values.
T = Trace of Precipitation, MM = Missing Value Source: Averaged Metar Reports

Daily Weather History Graph

Daily Weather History Graph

Search for Another Location

Airport:

Trip Planner

Search our weather history database for the weather conditions in past years. The results will help you decide how hot, cold, wet, or windy it might be!

Date:

Astronomy

Oct. 18, 2012 Rise Set
Actual Time 7:42 AM CEST 6:29 PM CEST
Civil Twilight 7:11 AM CEST 6:59 PM CEST
Nautical Twilight 6:37 AM CEST 7:34 PM CEST
Astronomical Twilight 6:02 AM CEST 8:08 PM CEST
Moon 11:16 AM CEST (10/18) 8:36 PM CEST (10/18)
Length of Visible Light 11h 48m
Length of Day
10h 47m
Waxing Crescent, 12% of the Moon is Illuminated
Oct 18
Waxing Crescent
Oct 22
First Quarter
Oct 29
Full
Nov 7
Last Quarter
Nov 13
New

Hourly Weather History & Observations

Time (CEST) Temp. Dew Point Humidity Pressure Visibility Wind Dir Wind Speed Gust Speed Precip Events Conditions
12:20 AM 55.4 °F 48.2 °F 77% 30.24 in 6.2 mi North 6.9 mph - N/A   Mostly Cloudy
12:50 AM 55.4 °F 50.0 °F 82% 30.24 in 6.2 mi North 5.8 mph - N/A   Mostly Cloudy
1:20 AM 55.4 °F 50.0 °F 82% 30.24 in 6.2 mi NNE 4.6 mph - N/A   Mostly Cloudy
1:50 AM 55.4 °F 50.0 °F 82% 30.24 in 6.2 mi North 4.6 mph - N/A   Mostly Cloudy
2:20 AM 55.4 °F 50.0 °F 82% 30.24 in 6.2 mi NNE 3.5 mph - N/A   Mostly Cloudy
2:50 AM 55.4 °F 50.0 °F 82% 30.24 in 6.2 mi Calm Calm - N/A   Mostly Cloudy
3:20 AM 55.4 °F 51.8 °F 88% 30.21 in 6.2 mi Variable 2.3 mph - N/A   Mostly Cloudy
3:50 AM 53.6 °F 50.0 °F 88% 30.21 in 6.2 mi North 5.8 mph - N/A   Scattered Clouds
4:20 AM 53.6 °F 51.8 °F 94% 30.21 in 6.2 mi NNW 3.5 mph - N/A   Scattered Clouds
4:50 AM 53.6 °F 50.0 °F 88% 30.21 in 6.2 mi North 2.3 mph - N/A   Scattered Clouds
5:20 AM 53.6 °F 51.8 °F 94% 30.21 in 6.2 mi Variable 2.3 mph - N/A   Scattered Clouds
5:50 AM 53.6 °F 51.8 °F 94% 30.21 in 6.2 mi NNE 2.3 mph - N/A   Scattered Clouds
6:20 AM 53.6 °F 51.8 °F 94% 30.21 in 6.2 mi South 3.5 mph - N/A   Scattered Clouds
6:50 AM 51.8 °F 50.0 °F 94% 30.21 in 6.2 mi Calm Calm - N/A   Scattered Clouds
7:20 AM 53.6 °F 51.8 °F 94% 30.21 in 6.2 mi NNE 1.2 mph - N/A   Scattered Clouds
7:50 AM 51.8 °F 51.8 °F 100% 30.21 in 6.2 mi ENE 2.3 mph - N/A   Mostly Cloudy
8:20 AM 51.8 °F 51.8 °F 100% 30.21 in 6.2 mi Variable 1.2 mph - N/A   Mostly Cloudy
8:50 AM 53.6 °F 51.8 °F 94% 30.21 in 6.2 mi Calm Calm - N/A   Mostly Cloudy
9:20 AM 55.4 °F 51.8 °F 88% 30.24 in 6.2 mi Variable 1.2 mph - N/A   Mostly Cloudy
9:50 AM 57.2 °F 51.8 °F 82% 30.24 in 6.2 mi Calm Calm - N/A   Scattered Clouds
10:20 AM 59.0 °F 51.8 °F 77% 30.24 in 6.2 mi Calm Calm - N/A   Scattered Clouds
10:50 AM 59.0 °F 51.8 °F 77% 30.24 in 6.2 mi SSW 3.5 mph - N/A   Scattered Clouds
11:20 AM 60.8 °F 53.6 °F 77% 30.24 in 6.2 mi Variable 2.3 mph - N/A   Scattered Clouds
11:50 AM 62.6 °F 51.8 °F 68% 30.24 in 6.2 mi Variable 2.3 mph - N/A   Scattered Clouds
12:20 PM 62.6 °F 50.0 °F 63% 30.24 in 6.2 mi SSW 3.5 mph - N/A   Scattered Clouds
12:50 PM 62.6 °F 51.8 °F 68% 30.24 in 6.2 mi Variable 3.5 mph - N/A   Scattered Clouds
1:20 PM 62.6 °F 51.8 °F 68% 30.21 in 6.2 mi SW 4.6 mph - N/A   Scattered Clouds
1:50 PM 64.4 °F 51.8 °F 64% 30.21 in 6.2 mi SW 4.6 mph - N/A   Scattered Clouds
2:20 PM 62.6 °F 53.6 °F 72% 30.21 in 6.2 mi SW 5.8 mph - N/A   Scattered Clouds
2:50 PM 64.4 °F 53.6 °F 68% 30.21 in 6.2 mi SW 4.6 mph - N/A   Scattered Clouds
3:20 PM 62.6 °F 53.6 °F 72% 30.18 in 6.2 mi SW 6.9 mph - N/A   Scattered Clouds
3:50 PM 62.6 °F 53.6 °F 72% 30.18 in 6.2 mi WSW 6.9 mph - N/A   Scattered Clouds
4:20 PM 62.6 °F 53.6 °F 72% 30.18 in 5.0 mi SSW 6.9 mph - N/A   Scattered Clouds
4:50 PM 62.6 °F 53.6 °F 72% 30.18 in 5.0 mi SW 5.8 mph - N/A   Scattered Clouds
5:20 PM 62.6 °F 53.6 °F 72% 30.18 in 5.0 mi SW 6.9 mph - N/A   Unknown
5:50 PM 60.8 °F 53.6 °F 77% 30.18 in 5.0 mi South 6.9 mph - N/A   Unknown
6:20 PM 60.8 °F 53.6 °F 77% 30.18 in 5.0 mi SW 5.8 mph - N/A   Unknown
6:50 PM 59.0 °F 53.6 °F 82% 30.21 in 5.0 mi SSW 3.5 mph - N/A   Unknown
7:20 PM 57.2 °F 53.6 °F 88% 30.21 in 3.7 mi Calm Calm - N/A   Partly Cloudy
7:50 PM 57.2 °F 53.6 °F 88% 30.21 in 3.7 mi Calm Calm - N/A   Partly Cloudy
8:20 PM 57.2 °F 53.6 °F 88% 30.21 in 3.7 mi Variable 2.3 mph - N/A   Partly Cloudy
8:50 PM 55.4 °F 53.6 °F 94% 30.21 in 3.1 mi Variable 2.3 mph - N/A   Partly Cloudy
9:20 PM 53.6 °F 53.6 °F 100% 30.24 in 3.1 mi Variable 1.2 mph - N/A   Partly Cloudy
9:50 PM 53.6 °F 53.6 °F 100% 30.24 in 3.1 mi NNW 2.3 mph - N/A   Partly Cloudy
10:20 PM 53.6 °F 53.6 °F 100% 30.24 in 3.1 mi Calm Calm - N/A   Partly Cloudy
10:50 PM 55.4 °F 53.6 °F 94% 30.24 in 3.1 mi ENE 3.5 mph - N/A   Partly Cloudy
11:20 PM 53.6 °F 53.6 °F 100% 30.24 in 3.1 mi Variable 2.3 mph - N/A   Partly Cloudy
11:50 PM 55.4 °F 53.6 °F 94% 30.24 in 3.1 mi East 2.3 mph - N/A   Partly Cloudy